{"data":{"norad_id":62160,"epoch":"2026-05-25T04:07:04.545696Z","epoch_age_seconds":57065,"freshness":"FRESH","line1":"1 62160U 24224X   26145.17158039  .00024275  00000+0  88809-3 0  9996","line2":"2 62160  43.0020  86.4527 0001299 283.0538  77.0168 15.27604076 84175","mean_motion":15.27604076,"eccentricity":0.0001299,"inclination_deg":43.002,"raan_deg":86.4527,"arg_perigee_deg":283.0538,"mean_anomaly_deg":77.0168,"bstar":0.00088809,"rev_number":8417,"period_min":94.265263010466,"perigee_km":482.08574607199,"apogee_km":483.86826349043,"semimajor_km":6861.1140047812,"source":"CELESTRAK","updated_at":"2026-05-25T13:38:19.598095Z"}}